Time,TemperatureF,DewpointF,PressureIn,WindDirection,WindDirectionDegrees,WindSpeedMPH,WindSpeedGustMPH,Humidity,HourlyPrecipIn,Conditions,Clouds,dailyrainin,SoftwareType,DateUTC
2013-10-21 00:14:00,56.7,48.5,29.72,South,180,0.0,-999.0,74,-99.99,,,0.00,Acu-Link.com,2013-10-21 05:14:00,
2013-10-21 00:29:00,56.1,48.7,29.72,WSW,247,0.0,-999.0,76,-99.99,,,0.00,Acu-Link.com,2013-10-21 05:29:00,
2013-10-21 00:45:00,56.1,49.0,29.72,SSE,157,1.6,-999.0,77,-99.99,,,0.00,Acu-Link.com,2013-10-21 05:45:00,
2013-10-21 01:00:00,55.9,48.8,29.73,SE,135,0.0,-999.0,77,-99.99,,,0.00,Acu-Link.com,2013-10-21 06:00:00,
2013-10-21 01:15:00,55.8,49.3,29.72,South,180,0.0,-999.0,79,-99.99,,,0.00,Acu-Link.com,2013-10-21 06:15:00,
2013-10-21 01:30:00,55.6,49.5,29.72,South,180,0.0,-999.0,80,-99.99,,,0.00,Acu-Link.com,2013-10-21 06:30:00,
2013-10-21 01:45:00,55.4,49.3,29.72,SSW,202,0.0,-999.0,80,-99.99,,,0.00,Acu-Link.com,2013-10-21 06:45:00,
2013-10-21 02:01:00,55.2,49.5,29.72,SSE,157,0.0,-999.0,81,-99.99,,,0.00,Acu-Link.com,2013-10-21 07:01:00,
2013-10-21 02:16:00,54.9,49.5,29.73,SSE,157,0.0,-999.0,82,-99.99,,,0.00,Acu-Link.com,2013-10-21 07:16:00,
2013-10-21 02:31:00,54.9,49.5,29.72,South,180,0.0,-999.0,82,-99.99,,,0.00,Acu-Link.com,2013-10-21 07:31:00,
2013-10-21 02:46:00,54.9,49.8,29.72,South,180,0.0,-999.0,83,-99.99,,,0.00,Acu-Link.com,2013-10-21 07:46:00,
2013-10-21 03:02:00,55.0,50.0,29.72,West,270,0.0,-999.0,83,-99.99,,,0.00,Acu-Link.com,2013-10-21 08:02:00,
2013-10-21 03:17:00,55.0,50.0,29.72,South,180,0.0,-999.0,83,-99.99,,,0.00,Acu-Link.com,2013-10-21 08:17:00,
2013-10-21 03:32:00,55.2,50.1,29.72,WNW,292,0.0,-999.0,83,-99.99,,,0.00,Acu-Link.com,2013-10-21 08:32:00,
2013-10-21 03:47:00,55.4,50.3,29.72,NNE,22,0.0,-999.0,83,-99.99,,,0.00,Acu-Link.com,2013-10-21 08:47:00,
2013-10-21 04:02:00,55.0,50.0,29.72,SSE,157,0.0,-999.0,83,-99.99,,,0.00,Acu-Link.com,2013-10-21 09:02:00,
2013-10-21 04:18:00,54.9,50.1,29.73,SSW,202,0.0,-999.0,84,-99.99,,,0.00,Acu-Link.com,2013-10-21 09:18:00,
2013-10-21 04:33:00,54.7,49.9,29.72,SSW,202,0.0,-999.0,84,-99.99,,,0.00,Acu-Link.com,2013-10-21 09:33:00,
2013-10-21 04:48:00,54.7,49.9,29.72,SSW,202,0.0,-999.0,84,-99.99,,,0.00,Acu-Link.com,2013-10-21 09:48:00,
2013-10-21 05:03:00,54.7,50.9,29.73,South,180,0.0,-999.0,87,-99.99,,,0.00,Acu-Link.com,2013-10-21 10:03:00,
2013-10-21 05:18:00,54.7,50.9,29.73,South,180,0.0,-999.0,87,-99.99,,,0.00,Acu-Link.com,2013-10-21 10:18:00,
2013-10-21 05:33:00,54.9,51.4,29.74,SE,135,0.0,-999.0,88,-99.99,,,0.00,Acu-Link.com,2013-10-21 10:33:00,
2013-10-21 05:49:00,55.0,51.9,29.73,South,180,0.0,-999.0,89,-99.99,,,0.00,Acu-Link.com,2013-10-21 10:49:00,
2013-10-21 06:04:00,54.9,51.7,29.74,South,180,0.0,-999.0,89,-99.99,,,0.00,Acu-Link.com,2013-10-21 11:04:00,
2013-10-21 06:19:00,54.9,52.3,29.75,SSW,202,0.0,-999.0,91,-99.99,,,0.00,Acu-Link.com,2013-10-21 11:19:00,
2013-10-21 06:34:00,54.1,51.6,29.75,SSW,202,0.0,-999.0,91,-99.99,,,0.00,Acu-Link.com,2013-10-21 11:34:00,
2013-10-21 06:50:00,54.0,51.7,29.75,SSW,202,0.0,-999.0,92,-99.99,,,0.00,Acu-Link.com,2013-10-21 11:50:00,
2013-10-21 07:05:00,53.6,51.6,29.75,ESE,112,0.0,-999.0,93,-99.99,,,0.00,Acu-Link.com,2013-10-21 12:05:00,
2013-10-21 07:20:00,53.2,51.3,29.76,South,180,1.1,-999.0,93,-99.99,,,0.00,Acu-Link.com,2013-10-21 12:20:00,
2013-10-21 07:35:00,53.2,51.8,29.77,SE,135,0.0,-999.0,95,-99.99,,,0.00,Acu-Link.com,2013-10-21 12:35:00,
2013-10-21 07:50:00,53.8,52.4,29.78,South,180,0.0,-999.0,95,-99.99,,,0.00,Acu-Link.com,2013-10-21 12:50:00,
2013-10-21 08:05:00,54.5,53.1,29.78,SSW,202,0.0,-999.0,95,-99.99,,,0.00,Acu-Link.com,2013-10-21 13:05:00,
2013-10-21 08:21:00,55.0,53.6,29.78,West,270,0.0,-999.0,95,-99.99,,,0.00,Acu-Link.com,2013-10-21 13:21:00,
2013-10-21 08:36:00,55.4,53.7,29.78,WNW,292,1.1,-999.0,94,-99.99,,,0.00,Acu-Link.com,2013-10-21 13:36:00,
2013-10-21 08:51:00,56.1,54.4,29.79,SSW,202,0.0,-999.0,94,-99.99,,,0.00,Acu-Link.com,2013-10-21 13:51:00,
2013-10-21 09:06:00,57.0,54.7,29.80,East,90,0.0,-999.0,92,-99.99,,,0.00,Acu-Link.com,2013-10-21 14:06:00,
2013-10-21 09:21:00,58.5,55.5,29.79,South,180,0.0,-999.0,90,-99.99,,,0.00,Acu-Link.com,2013-10-21 14:21:00,
2013-10-21 09:37:00,59.4,55.8,29.79,SE,135,0.0,-999.0,88,-99.99,,,0.00,Acu-Link.com,2013-10-21 14:37:00,
2013-10-21 09:52:00,60.6,56.4,29.79,South,180,1.6,-999.0,86,-99.99,,,0.00,Acu-Link.com,2013-10-21 14:52:00,
2013-10-21 10:07:00,61.5,57.3,29.79,SE,135,0.0,-999.0,86,-99.99,,,0.00,Acu-Link.com,2013-10-21 15:07:00,
2013-10-21 10:22:00,63.7,58.4,29.79,SE,135,0.0,-999.0,83,-99.99,,,0.00,Acu-Link.com,2013-10-21 15:22:00,
2013-10-21 10:38:00,65.5,59.5,29.79,SE,135,1.1,-999.0,81,-99.99,,,0.00,Acu-Link.com,2013-10-21 15:38:00,
2013-10-21 10:53:00,66.7,60.0,29.79,SSW,202,2.7,-999.0,79,-99.99,,,0.00,Acu-Link.com,2013-10-21 15:53:00,
2013-10-21 11:08:00,67.6,60.5,29.79,SW,225,4.3,-999.0,78,-99.99,,,0.00,Acu-Link.com,2013-10-21 16:08:00,
2013-10-21 11:23:00,68.2,61.1,29.78,SSE,157,1.6,-999.0,78,-99.99,,,0.00,Acu-Link.com,2013-10-21 16:23:00,
2013-10-21 11:39:00,70.2,61.9,29.78,NNW,337,1.1,-999.0,75,-99.99,,,0.00,Acu-Link.com,2013-10-21 16:39:00,
2013-10-21 11:54:00,69.6,61.7,29.79,SSW,202,0.0,-999.0,76,-99.99,,,0.00,Acu-Link.com,2013-10-21 16:54:00,
2013-10-21 12:09:00,69.6,61.7,29.79,South,180,0.0,-999.0,76,-99.99,,,0.00,Acu-Link.com,2013-10-21 17:09:00,
2013-10-21 12:24:00,68.9,61.4,29.79,South,180,0.0,-999.0,77,-99.99,,,0.00,Acu-Link.com,2013-10-21 17:24:00,
2013-10-21 12:39:00,69.4,61.9,29.79,SSW,202,0.0,-999.0,77,-99.99,,,0.00,Acu-Link.com,2013-10-21 17:39:00,
2013-10-21 12:55:00,70.2,62.2,29.79,South,180,1.1,-999.0,76,-99.99,,,0.00,Acu-Link.com,2013-10-21 17:55:00,
2013-10-21 13:10:00,69.8,62.3,29.79,South,180,0.0,-999.0,77,-99.99,,,0.00,Acu-Link.com,2013-10-21 18:10:00,
2013-10-21 13:25:00,70.0,62.4,29.78,SW,225,1.6,-999.0,77,-99.99,,,0.00,Acu-Link.com,2013-10-21 18:25:00,
2013-10-21 13:40:00,70.2,62.6,29.78,SSW,202,0.0,-999.0,77,-99.99,,,0.00,Acu-Link.com,2013-10-21 18:40:00,
2013-10-21 13:55:00,71.4,63.1,29.77,ENE,67,1.6,-999.0,75,-99.99,,,0.00,Acu-Link.com,2013-10-21 18:55:00,
2013-10-21 14:11:00,72.1,62.2,29.77,SW,225,2.2,-999.0,71,-99.99,,,0.00,Acu-Link.com,2013-10-21 19:11:00,
2013-10-21 14:26:00,72.3,61.6,29.76,West,270,3.8,-999.0,69,-99.99,,,0.00,Acu-Link.com,2013-10-21 19:26:00,
2013-10-21 14:41:00,72.1,61.8,29.76,NW,315,1.6,-999.0,70,-99.99,,,0.00,Acu-Link.com,2013-10-21 19:41:00,
2013-10-21 14:56:00,71.4,59.0,29.76,ESE,112,5.8,-999.0,65,-99.99,,,0.00,Acu-Link.com,2013-10-21 19:56:00,
2013-10-21 15:11:00,69.4,57.2,29.77,NW,315,4.7,-999.0,65,-99.99,,,0.00,Acu-Link.com,2013-10-21 20:11:00,
2013-10-21 15:27:00,68.9,57.1,29.78,North,0,3.8,-999.0,66,-99.99,,,0.00,Acu-Link.com,2013-10-21 20:27:00,
2013-10-21 15:42:00,68.0,56.2,29.78,West,270,2.7,-999.0,66,-99.99,,,0.00,Acu-Link.com,2013-10-21 20:42:00,
2013-10-21 15:57:00,67.1,56.2,29.78,West,270,5.1,-999.0,68,-99.99,,,0.00,Acu-Link.com,2013-10-21 20:57:00,
2013-10-21 16:12:00,66.4,56.3,29.78,East,90,1.6,-999.0,70,-99.99,,,0.00,Acu-Link.com,2013-10-21 21:12:00,
2013-10-21 16:28:00,65.8,55.8,29.79,WSW,247,5.1,-999.0,70,-99.99,,,0.00,Acu-Link.com,2013-10-21 21:28:00,
2013-10-21 16:43:00,64.2,54.6,29.80,NNW,337,1.6,-999.0,71,-99.99,,,0.00,Acu-Link.com,2013-10-21 21:43:00,
2013-10-21 16:58:00,64.0,54.4,29.80,NW,315,3.1,-999.0,71,-99.99,,,0.00,Acu-Link.com,2013-10-21 21:58:00,
2013-10-21 17:13:00,63.3,54.1,29.80,NNE,22,3.1,-999.0,72,-99.99,,,0.00,Acu-Link.com,2013-10-21 22:13:00,
2013-10-21 17:28:00,63.0,54.2,29.80,WSW,247,2.7,-999.0,73,-99.99,,,0.00,Acu-Link.com,2013-10-21 22:28:00,
2013-10-21 17:44:00,62.8,54.4,29.81,NE,45,3.8,-999.0,74,-99.99,,,0.00,Acu-Link.com,2013-10-21 22:44:00,
2013-10-21 17:59:00,62.4,54.4,29.81,NNE,22,2.7,-999.0,75,-99.99,,,0.00,Acu-Link.com,2013-10-21 22:59:00,
2013-10-21 18:14:00,62.2,54.2,29.82,West,270,7.4,-999.0,75,-99.99,,,0.00,Acu-Link.com,2013-10-21 23:14:00,
2013-10-21 18:29:00,61.5,53.9,29.82,West,270,4.7,-999.0,76,-99.99,,,0.00,Acu-Link.com,2013-10-21 23:29:00,
2013-10-21 18:44:00,60.8,53.5,29.83,West,270,4.3,-999.0,77,-99.99,,,0.00,Acu-Link.com,2013-10-21 23:44:00,
2013-10-21 18:59:00,60.4,53.5,29.83,West,270,4.3,-999.0,78,-99.99,,,0.00,Acu-Link.com,2013-10-21 23:59:00,
2013-10-21 19:15:00,59.9,53.4,29.83,ESE,112,1.6,-999.0,79,-99.99,,,0.00,Acu-Link.com,2013-10-22 00:15:00,
2013-10-21 19:30:00,59.9,53.4,29.85,NE,45,3.1,-999.0,79,-99.99,,,0.00,Acu-Link.com,2013-10-22 00:30:00,
2013-10-21 19:45:00,59.7,53.5,29.85,NW,315,4.3,-999.0,80,-99.99,,,0.00,Acu-Link.com,2013-10-22 00:45:00,
2013-10-21 20:00:00,59.5,53.4,29.85,NE,45,2.7,-999.0,80,-99.99,,,0.00,Acu-Link.com,2013-10-22 01:00:00,
2013-10-21 20:15:00,59.4,53.2,29.86,NNE,22,3.1,-999.0,80,-99.99,,,0.00,Acu-Link.com,2013-10-22 01:15:00,
2013-10-21 20:31:00,59.7,53.5,29.86,NNW,337,1.6,-999.0,80,-99.99,,,0.00,Acu-Link.com,2013-10-22 01:31:00,
2013-10-21 20:46:00,59.7,53.5,29.87,NNE,22,3.8,-999.0,80,-99.99,,,0.00,Acu-Link.com,2013-10-22 01:46:00,
2013-10-21 21:01:00,59.5,53.0,29.87,ENE,67,2.7,-999.0,79,-99.99,,,0.00,Acu-Link.com,2013-10-22 02:01:00,
2013-10-21 21:17:00,58.6,52.1,29.88,NNE,22,3.8,-999.0,79,-99.99,,,0.00,Acu-Link.com,2013-10-22 02:17:00,
2013-10-21 21:32:00,57.7,50.6,29.89,South,180,3.8,-999.0,77,-99.99,,,0.00,Acu-Link.com,2013-10-22 02:32:00,
2013-10-21 21:47:00,56.8,49.7,29.89,NW,315,4.7,-999.0,77,-99.99,,,0.00,Acu-Link.com,2013-10-22 02:47:00,
2013-10-21 22:03:00,56.1,49.0,29.90,NW,315,2.2,-999.0,77,-99.99,,,0.00,Acu-Link.com,2013-10-22 03:03:00,
2013-10-21 22:18:00,55.6,48.8,29.91,WNW,292,1.6,-999.0,78,-99.99,,,0.00,Acu-Link.com,2013-10-22 03:18:00,
2013-10-21 22:33:00,55.2,48.5,29.91,ENE,67,2.2,-999.0,78,-99.99,,,0.00,Acu-Link.com,2013-10-22 03:33:00,
2013-10-21 22:48:00,54.7,48.3,29.92,NNW,337,0.0,-999.0,79,-99.99,,,0.00,Acu-Link.com,2013-10-22 03:48:00,
2013-10-21 23:03:00,54.5,47.8,29.92,NE,45,4.7,-999.0,78,-99.99,,,0.00,Acu-Link.com,2013-10-22 04:03:00,
2013-10-21 23:19:00,54.7,47.6,29.93,East,90,1.1,-999.0,77,-99.99,,,0.00,Acu-Link.com,2013-10-22 04:19:00,
2013-10-21 23:34:00,54.1,47.1,29.92,West,270,1.6,-999.0,77,-99.99,,,0.00,Acu-Link.com,2013-10-22 04:34:00,
2013-10-21 23:49:00,53.6,46.9,29.92,SE,135,3.8,-999.0,78,-99.99,,,0.00,Acu-Link.com,2013-10-22 04:49:00,